Location: Be Gungo
(6.7099°N, 10.7525°W)
Time: 22:35:24
(UTC+00:00)

Daily predictions for brighter satellites

Satellite Brightness Start Highest point End
(mag) Time Altitude Azimuth Time Altitude Azimuth Time Altitude Azimuth
VEP-3 3.5 18:41:06 10° WNW 18:46:41 75° NNE 19:05:22 10° ESE
Cosmos 2112 Rocket 4.2 18:49:42 10° N 18:54:46 51° ENE 18:59:53 10° SSE
Palapa 6 Rocket 4.4 18:52:36 10° WNW 18:55:55 25° NNW 18:59:04 10° NE
Cosmos 1680 Rocket 3.5 18:51:25 10° N 18:56:38 67° ENE 19:01:52 10° SSE
TSX-5 3.5 18:54:23 10° S 18:57:23 44° ESE 19:00:34 10° NNE
Cosmos 1603 4.2 18:54:00 10° N 18:59:09 38° ENE 19:04:18 10° SE
USA 215 3.3 18:53:57 10° SE 19:00:29 74° NE 19:07:00 10° NNW
NOAA 11 4.2 18:57:23 10° SSE 19:02:50 69° ENE 19:08:17 10° N
Ariane H10+ 1.4 19:02:28 10° WSW 19:03:56 28° S 19:05:27 11° ESE
NATO 3D Rocket 4.4 18:57:09 10° W 19:04:00 54° NNW 19:09:05 10° NE
FengYun 1-2 T 4.3 18:59:11 10° SSE 19:04:43 88° ENE 19:10:18 10° NNW
Cosmos 2151 Rocket 3.9 19:01:16 10° SSE 19:05:28 43° E 19:09:41 10° NNE
GP-B 4.1 19:03:53 10° N 19:08:10 52° W 19:12:28 10° SSW
Cosmos 1891 Rocket 4.4 19:02:57 10° S 19:09:11 78° E 19:15:16 10° N
COSMOS 2455 4.4 19:08:19 10° SE 19:11:21 14° ESE 19:13:33 12° E
Okean O Rocket 4.2 19:09:46 10° SSW 19:13:25 25° W 19:17:04 10° NW
MOS 1 Rocket 3.4 19:10:18 10° NNE 19:14:22 43° E 19:18:31 10° S
Cosmos 1805 4.4 19:13:50 10° SE 19:16:52 22° E 19:19:54 10° NE
SEDSat Delta rocket 3.5 19:16:20 10° NW 19:21:57 62° NNE 19:25:45 17° ESE
RESURS DK-1 4.1 19:20:47 10° SE 19:22:16 14° ESE 19:22:16 14° ESE
H-2A R/B 3.3 19:22:41 16° E 19:23:36 17° ENE 19:26:46 10° NE
CZ-2C R/B 3.5 19:20:45 10° NE 19:25:27 28° E 19:30:08 10° SSE
SL-8 R/B 3.8 19:20:48 10° SW 19:25:36 77° NW 19:30:23 10° NE
Cosmos 1939 Rocket 2.9 19:22:59 10° S 19:27:04 84° W 19:31:11 10° NNW
Cosmos 1975 Rocket 2.9 19:23:53 10° N 19:28:11 80° E 19:32:31 10° S
Meteor 1-21 4.2 19:25:04 10° N 19:30:39 87° E 19:36:18 10° S
Milstar 3 4.1 19:26:27 10° SSW 19:32:04 26° SE 19:36:05 18° ESE
Cosmos 2278 Rocket 2.4 19:33:01 10° S 19:38:22 44° ESE 19:43:41 10° NNE
Centaur AC-119 4.0 19:34:58 10° W 19:40:22 26° NW 19:42:30 12° NNE
Cosmos 2034 Rocket 4.2 19:37:32 10° S 19:43:55 80° W 19:50:16 10° N
USA 234 3.2 19:40:45 10° NE 19:47:17 89° NW 19:53:51 10° SW
Okean 1 Rocket 3.0 19:44:43 10° S 19:49:08 67° E 19:53:34 10° N
Delta 168 2.7 19:44:23 10° WNW 19:49:24 77° NNE 19:50:22 49° E
Nadezhda 4 Rocket 4.4 19:43:58 10° NNE 19:49:27 35° E 19:53:29 17° SE
Cosmos 1707 2.5 19:47:17 10° N 19:51:06 81° E 19:54:56 10° S
Cosmos 1766 3.0 19:54:42 10° S 19:58:34 78° E 20:01:42 15° N
CSL-04 Debris 4.0 19:55:11 10° SSE 20:00:32 66° ENE 20:05:51 10° N
YAOGAN 1 2.8 19:56:43 10° S 20:01:01 68° WSW 20:05:17 10° NNW
CSL-04 Rocket 3.5 19:57:05 10° SSE 20:02:22 64° ENE 20:07:44 10° N
Cosmos 1634 Rocket 3.8 20:05:34 10° S 20:11:41 69° E 20:17:48 10° N
CZ-4 R/B 3.5 20:13:50 10° SSW 20:17:28 28° W 20:21:07 10° NW
SJ-11-01 4.3 20:20:09 59° SSW 20:21:00 77° WSW 20:25:41 10° NNW
Cosmos 1025 Rocket 3.5 20:18:09 10° NNW 20:22:28 58° W 20:23:29 45° SW
CZ-2C R/B 3.6 20:19:13 10° S 20:24:07 55° W 20:29:15 10° NNW
ARIANE 5 R/B 2.9 20:21:32 10° W 20:27:14 45° WSW 20:27:14 45° WSW
Sea Lan Dem Rocket 4.0 20:32:12 10° WSW 20:33:55 21° SW 20:33:55 21° SW
CZ-4C R/B 3.0 20:36:59 10° SW 20:40:14 36° W 20:40:14 36° W
Cosmos 1867 4.1 20:36:59 10° NNW 20:41:47 54° W 20:41:47 54° W
COSMOS 2455 3.7 20:51:12 10° SW 20:56:51 45° WNW 20:56:51 45° WNW
H-2A R/B 3.9 21:03:19 25° W 21:03:19 25° W 21:06:49 10° NW
